Tracking 34410 objects as of 16-Jun-2026
HD Live streaming from Space Station
objects crossing your sky now

WESTFORD NEEDLES

Track WESTFORD NEEDLES now!
10-day predictions
WESTFORD NEEDLES is classified as:


NORAD ID: 3257
Int'l Code: 1963-014BX
Perigee: 3,236.0 km
Apogee: 4,062.6 km
Inclination: 87.3 °
Period: 166.4 minutes
Semi major axis: 10020 km
RCS: 0.1816 m2 (medium)
Launch date: May 9, 1963
Source: United States (US)
Launch site: AIR FORCE WESTERN TEST RANGE (AFWTR)
Your satellite tracking list
Your tracking list is empty




NASA's NSSDC Master Catalog

Two Line Element Set (TLE):
1 03257U 63014BX  26151.99652232 -.00000046  00000-0 -21287-1 0  9997
2 03257  87.3198 149.6634 0412487 178.0179 182.2419  8.65532103 58538
Source of the keplerian elements: AFSPC